Starlink 3568

operational
NORAD ID: 51856 Int'l Des: 2022-022 Owner: SPXS Country: US Constellation: starlink
LEOCIRCULAR

Über Starlink 3568

Beschreibung wird geladen...

Live-Position

3D-Globus wird geladen...

Nächste Überflüge

Höhenverlauf

Altitude vs Time

uPlot chart will show altitude changes over time

Zweizeiliger Elementsatz

1 51856U 22022E 25304.81063762 -.00000678 00000-0 -24514-4 0 9993
2 51856 53.2194 237.6918 0001618 82.3797 277.7379 15.08823311203592
Epoch: 31. Okt. 2025 • Age: 16 hours

Aktueller Status

Höhe 540.2 km
Geschwindigkeit 7.59 km/s
Subsatellitenpunkt 2.46°N, 25.04°E
Startdatum 3. März 2022
Alter 3.6 years
Typ internet

Technische Details

Klassifizierung Payload
Masse 297.00 kg
Trockenmasse 275.00 kg
Gesamtmasse 297.00 kg
Länge 0.20 m
Durchmesser 2.80 m
Spannweite 9.00 m
Form Box + pan
Hersteller SPXS
Bus-Typ Starlink
Phasenstatus In Orbit
Besitzer/Staat SPXS/US

Große Konstellationen

Loading constellations...